STARLINK-11298 [DTC] (61211 NORAD) Tracking and Keplerian Element Data

This shows tracking and keplerian element data for the satellite.

Feedback or suggestion? Click here.




ElementValue
Catalog61211
NameSTARLINK-11298 [DTC]
Epoch Orbit382
Epoch Day286.72728369
Epoch Year2024
RAAN185.6155
Inclination53.159
Eccentricity0.000108
Argument of Perigee113.1676
Mean Anonmoly246.9459
Mean Motion15.7673133
Decay Rate0.00012018
L11 61211U 24171M 24286.72728369 .00012018 00000+0 77309-4 0 9993
L22 61211 53.1590 185.6155 0001080 113.1676 246.9459 15.76731330 3829



Live tracking and technical data element details for STARLINK-11298 [DTC] (NORAD 61211). STARLINK-11298 [DTC] can be tracked NOW for your location showing map with azimuth and elevation plus other details from your city location.







IsCatalogInMostPopularTable: catalog: 61211, numindb: 23
Update: records affected: 1



GetName: 61211 STARLINK-11298 [DTC]

Hit Count: updated at: Fri, 06 Dec 2024 11:55:11 GMT